Starlink 11708

operational
NORAD ID: 64238 Int'l Des: 2025-119 Owner: SPXS Country: US Constellation: starlink
LEOCIRCULAR

关于 Starlink 11708

正在加载描述...

实时位置

正在加载3D地球...

即将过境

高度历史

Altitude vs Time

uPlot chart will show altitude changes over time

两行轨道根数

1 64238U 25119F 25307.87743197 .00237568 00000-0 17971-2 0 9992
2 64238 43.0009 247.8327 0001309 242.2276 117.8459 15.70912081 25457
Epoch: Nov 3, 2025 • Age: 24 hours

当前状态

高度 364.1 km
速度 7.69 km/s
星下点 -34.21°S, 167.6°W
发射日期 Jun 3, 2025
运行时间 0.4 years
类型 internet

技术详情

分类 Payload
质量 960.00 kg
干质量 910.00 kg
总质量 960.00 kg
长度 0.30 m
直径 4.10 m
跨度 29.00 m
形状 Box + pan
制造商 SPXS
平台类型 Starlink V2MD
阶段状态 In Orbit
所有者/国家 SPXS/US

大型星座

Loading constellations...